,,Stat6,,Stat2,,Stat8,,Stat9,,Stat10,,Wind1,,Wind1,
time,status,PA1M_AVG,status,PR1M_SUM,status,RH1M_AVG,status,SR1M_AVG,status,TA1M_AVG,status,W1dAve1m,status,W1sAve1m,
2009-02-28, 00:00:00,VALID,916.57,VALID,0,VALID,96.2923,VALID,-0.118866,VALID,18.6332,VALID,41,VALID,0,
2009-02-28, 00:01:00,VALID,916.565,VALID,0,VALID,96.2071,VALID,-0.118866,VALID,18.6756,VALID,360,VALID,0,
2009-02-28, 00:02:00,VALID,916.541,VALID,0,VALID,95.9604,VALID,-0.101885,VALID,18.6779,VALID,34,VALID,0,
2009-02-28, 00:03:00,VALID,916.527,VALID,0,VALID,96.1384,VALID,-0.118866,VALID,18.7048,VALID,34,VALID,0,
2009-02-28, 00:04:00,VALID,916.513,VALID,0,VALID,96.2961,VALID,-0.101885,VALID,18.6589,VALID,34,VALID,0,
2009-02-28, 00:05:00,VALID,916.494,VALID,0,VALID,96.1587,VALID,-0.101885,VALID,18.6364,VALID,34,VALID,0,
2009-02-28, 00:06:00,VALID,916.479,VALID,0,VALID,96.1715,VALID,-0.118866,VALID,18.6202,VALID,34,VALID,0,
2009-02-28, 00:07:00,VALID,916.472,VALID,0,VALID,96.3813,VALID,-0.118866,VALID,18.6008,VALID,34,VALID,0,
2009-02-28, 00:08:00,VALID,916.469,VALID,0,VALID,96.4512,VALID,-0.101885,VALID,18.5845,VALID,34,VALID,0,
2009-02-28, 00:09:00,VALID,916.476,VALID,0,VALID,96.628,VALID,-0.101885,VALID,18.5591,VALID,34,VALID,0,
2009-02-28, 00:10:00,VALID,916.453,VALID,0,VALID,96.8708,VALID,-0.135847,VALID,18.5588,VALID,34,VALID,0,
2009-02-28, 00:11:00,VALID,916.422,VALID,0,VALID,97.0883,VALID,-0.135847,VALID,18.5326,VALID,34,VALID,0,
2009-02-28, 00:12:00,VALID,916.415,VALID,0,VALID,97.3019,VALID,-0.135847,VALID,18.4937,VALID,34,VALID,0,
2009-02-28, 00:13:00,VALID,916.408,VALID,0,VALID,97.4876,VALID,-0.118866,VALID,18.4613,VALID,34,VALID,0,
2009-02-28, 00:14:00,VALID,916.387,VALID,0,VALID,97.4621,VALID,-0.101885,VALID,18.4258,VALID,34,VALID,0,
2009-02-28, 00:15:00,VALID,916.39,VALID,0,VALID,97.396,VALID,-0.118866,VALID,18.3996,VALID,34,VALID,0,
2009-02-28, 00:16:00,VALID,916.393,VALID,0,VALID,97.4253,VALID,-0.118866,VALID,18.3996,VALID,34,VALID,0,
2009-02-28, 00:17:00,VALID,916.383,VALID,0,VALID,97.4914,VALID,-0.101885,VALID,18.4084,VALID,34,VALID,0,
2009-02-28, 00:18:00,VALID,916.383,VALID,0,VALID,97.4812,VALID,-0.118866,VALID,18.4383,VALID,34,VALID,0,
2009-02-28, 00:19:00,VALID,916.375,VALID,0,VALID,97.3757,VALID,-0.101885,VALID,18.4476,VALID,34,VALID,0,
2009-02-28, 00:20:00,VALID,916.377,VALID,0,VALID,97.466,VALID,-0.118866,VALID,18.4613,VALID,34,VALID,0,
2009-02-28, 00:21:00,VALID,916.373,VALID,0,VALID,97.5041,VALID,-0.118866,VALID,18.4448,VALID,34,VALID,0,
2009-02-28, 00:22:00,VALID,916.365,VALID,0,VALID,97.6185,VALID,-0.118866,VALID,18.4124,VALID,34,VALID,0.248935,
2009-02-28, 00:23:00,VALID,916.361,VALID,0,VALID,97.4927,VALID,-0.101885,VALID,18.4024,VALID,19,VALID,0.119851,
2009-02-28, 00:24:00,VALID,916.35,VALID,0,VALID,97.3286,VALID,-0.101885,VALID,18.4448,VALID,28,VALID,0,
2009-02-28, 00:25:00,VALID,916.334,VALID,0,VALID,97.1926,VALID,-0.101885,VALID,18.497,VALID,22,VALID,0.00130208,
2009-02-28, 00:26:00,VALID,916.316,VALID,0,VALID,96.8861,VALID,-0.135847,VALID,18.5519,VALID,22,VALID,0.00213068,
2009-02-28, 00:27:00,VALID,916.314,VALID,0,VALID,96.291,VALID,-0.118866,VALID,18.626,VALID,17,VALID,0,
2009-02-28, 00:28:00,VALID,916.302,VALID,0,VALID,95.8853,VALID,-0.101885,VALID,18.7365,VALID,23,VALID,0,
2009-02-28, 00:29:00,VALID,916.296,VALID,0,VALID,95.4339,VALID,-0.101885,VALID,18.7879,VALID,23,VALID,0,
2009-02-28, 00:30:00,VALID,916.301,VALID,0,VALID,94.9711,VALID,-0.101885,VALID,18.8698,VALID,15,VALID,0,
2009-02-28, 00:31:00,VALID,916.292,VALID,0,VALID,94.4192,VALID,-0.101885,VALID,18.9346,VALID,4,VALID,0,
2009-02-28, 00:32:00,VALID,916.277,VALID,0,VALID,94.058,VALID,-0.101885,VALID,19.0028,VALID,32,VALID,0,
2009-02-28, 00:33:00,VALID,916.281,VALID,0,VALID,93.9436,VALID,-0.101885,VALID,19.0285,VALID,28,VALID,0,
2009-02-28, 00:34:00,VALID,916.271,VALID,0,VALID,93.9372,VALID,-0.0849042,VALID,19.032,VALID,46,VALID,0,
2009-02-28, 00:35:00,VALID,916.261,VALID,0,VALID,93.8762,VALID,-0.118866,VALID,19.0449,VALID,31,VALID,0,
2009-02-28, 00:36:00,VALID,916.237,VALID,0,VALID,93.8317,VALID,-0.101885,VALID,19.0547,VALID,26,VALID,0,
2009-02-28, 00:37:00,VALID,916.231,VALID,0,VALID,94.0135,VALID,-0.101885,VALID,19.0187,VALID,22,VALID,0,
2009-02-28, 00:38:00,VALID,916.217,VALID,0,VALID,94.1636,VALID,-0.0169808,VALID,19.005,VALID,36,VALID,0,
2009-02-28, 00:39:00,VALID,916.213,VALID,0,VALID,94.2653,VALID,-0.0169808,VALID,18.9758,VALID,25,VALID,0.00436047,
2009-02-28, 00:40:00,VALID,916.187,VALID,0,VALID,94.4828,VALID,-0.0169808,VALID,18.9466,VALID,21,VALID,0.0933949,
2009-02-28, 00:41:00,VALID,916.176,VALID,0,VALID,94.7562,VALID,-0.0339617,VALID,18.914,VALID,28,VALID,0.469097,
2009-02-28, 00:42:00,VALID,916.168,VALID,0,VALID,94.6544,VALID,-0.0339617,VALID,18.9047,VALID,9,VALID,0.259766,
2009-02-28, 00:43:00,VALID,916.141,VALID,0,VALID,94.5896,VALID,-0.0169808,VALID,18.9045,VALID,20,VALID,0.0753348,
2009-02-28, 00:44:00,VALID,916.126,VALID,0,VALID,94.7206,VALID,-0.0169808,VALID,18.9075,VALID,25,VALID,0.000186012,
2009-02-28, 00:45:00,VALID,916.093,VALID,0,VALID,94.8223,VALID,-0.0169808,VALID,18.9008,VALID,34,VALID,0.133721,
2009-02-28, 00:46:00,VALID,916.108,VALID,0,VALID,94.835,VALID,-0.0339617,VALID,18.9008,VALID,15,VALID,0.0783155,
2009-02-28, 00:47:00,VALID,916.091,VALID,0,VALID,94.9736,VALID,0,VALID,18.9105,VALID,94,VALID,0.37407,
2009-02-28, 00:48:00,VALID,916.076,VALID,0,VALID,94.8706,VALID,0,VALID,18.914,VALID,58,VALID,0.172081,
2009-02-28, 00:49:00,VALID,916.101,VALID,0,VALID,94.8185,VALID,0,VALID,18.9267,VALID,46,VALID,0,
2009-02-28, 00:50:00,VALID,916.088,VALID,0,VALID,94.6481,VALID,-0.0509425,VALID,18.9497,VALID,90,VALID,0,
2009-02-28, 00:51:00,VALID,916.079,VALID,0,VALID,94.6659,VALID,-0.0509425,VALID,18.9921,VALID,47,VALID,0,
2009-02-28, 00:52:00,VALID,916.078,VALID,0,VALID,94.6176,VALID,-0.0169808,VALID,18.9851,VALID,25,VALID,0,
2009-02-28, 00:53:00,VALID,916.081,VALID,0,VALID,94.7155,VALID,-0.0679233,VALID,18.9853,VALID,14,VALID,0,
2009-02-28, 00:54:00,VALID,916.063,VALID,0,VALID,94.8388,VALID,-0.0509425,VALID,18.9758,VALID,37,VALID,0,
2009-02-28, 00:55:00,VALID,916.063,VALID,0,VALID,95.0016,VALID,0,VALID,18.9791,VALID,47,VALID,0,
2009-02-28, 00:56:00,VALID,916.073,VALID,0,VALID,94.9469,VALID,-0.0169808,VALID,18.9564,VALID,47,VALID,0,
2009-02-28, 00:57:00,VALID,916.089,VALID,0,VALID,95.0613,VALID,-0.0509425,VALID,18.9402,VALID,47,VALID,0,
2009-02-28, 00:58:00,VALID,916.079,VALID,0,VALID,95.083,VALID,-0.0509425,VALID,18.9464,VALID,47,VALID,0,
2009-02-28, 00:59:00,VALID,916.063,VALID,0,VALID,95.3258,VALID,-0.0169808,VALID,18.9596,VALID,47,VALID,0,
2009-02-28, 01:00:00,VALID,916.046,VALID,0,VALID,95.397,VALID,-0.0509425,VALID,18.9661,VALID,49,VALID,0,
2009-02-28, 01:01:00,VALID,916.049,VALID,0,VALID,95.1682,VALID,-0.0339617,VALID,18.9499,VALID,241,VALID,0.15298,
2009-02-28, 01:02:00,VALID,916.033,VALID,0,VALID,94.7485,VALID,-0.0339617,VALID,18.9624,VALID,258,VALID,0.0116235,
2009-02-28, 01:03:00,VALID,916.034,VALID,0,VALID,94.8477,VALID,0,VALID,19.0305,VALID,280,VALID,0,
2009-02-28, 01:04:00,VALID,916.05,VALID,0,VALID,94.9075,VALID,-0.0509425,VALID,19.0338,VALID,344,VALID,0,
2009-02-28, 01:05:00,VALID,916.032,VALID,0,VALID,95.0753,VALID,-0.0339617,VALID,19.0048,VALID,344,VALID,0,
2009-02-28, 01:06:00,VALID,916.014,VALID,0,VALID,95.294,VALID,-0.0339617,VALID,18.9694,VALID,343,VALID,0,
2009-02-28, 01:07:00,VALID,916.002,VALID,0,VALID,95.4148,VALID,-0.0169808,VALID,18.9466,VALID,343,VALID,0,
2009-02-28, 01:08:00,VALID,915.972,VALID,0,VALID,95.5153,VALID,-0.0509425,VALID,18.9372,VALID,324,VALID,0.00243056,
2009-02-28, 01:09:00,VALID,915.92,VALID,0,VALID,95.5331,VALID,-0.0169808,VALID,18.9367,VALID,27,VALID,0.662194,
2009-02-28, 01:10:00,VALID,915.924,VALID,0,VALID,95.4161,VALID,-0.0339617,VALID,18.9402,VALID,22,VALID,0,
2009-02-28, 01:11:00,VALID,915.921,VALID,0,VALID,95.4632,VALID,-0.0509425,VALID,18.9466,VALID,39,VALID,0,
2009-02-28, 01:12:00,VALID,915.928,VALID,0,VALID,95.5598,VALID,-0.0339617,VALID,18.9404,VALID,39,VALID,0,
2009-02-28, 01:13:00,VALID,915.891,VALID,0,VALID,95.4911,VALID,-0.0169808,VALID,18.9237,VALID,176,VALID,0.368304,
2009-02-28, 01:14:00,VALID,915.901,VALID,0,VALID,95.4886,VALID,-0.0169808,VALID,18.9462,VALID,226,VALID,0.495722,
2009-02-28, 01:15:00,VALID,915.917,VALID,0,VALID,95.3843,VALID,-0.0169808,VALID,18.9851,VALID,337,VALID,0.4125,
2009-02-28, 01:16:00,VALID,915.888,VALID,0,VALID,95.2406,VALID,-0.0169808,VALID,18.9724,VALID,322,VALID,1.29705,
2009-02-28, 01:17:00,VALID,915.948,VALID,0,VALID,95.2343,VALID,0,VALID,18.9724,VALID,329,VALID,0.445313,
2009-02-28, 01:18:00,VALID,915.949,VALID,0,VALID,95.2457,VALID,-0.0339617,VALID,18.9758,VALID,8,VALID,0.480273,
2009-02-28, 01:19:00,VALID,915.962,VALID,0,VALID,95.2864,VALID,-0.0169808,VALID,18.9691,VALID,15,VALID,0,
2009-02-28, 01:20:00,VALID,915.937,VALID,0,VALID,95.2623,VALID,-0.0339617,VALID,18.9594,VALID,22,VALID,0,
2009-02-28, 01:21:00,VALID,915.956,VALID,0,VALID,95.3347,VALID,-0.0169808,VALID,18.9561,VALID,14,VALID,0,
2009-02-28, 01:22:00,VALID,915.952,VALID,0,VALID,95.247,VALID,-0.0679233,VALID,18.9629,VALID,20,VALID,0,
2009-02-28, 01:23:00,VALID,915.936,VALID,0,VALID,95.1834,VALID,-0.0339617,VALID,18.9791,VALID,36,VALID,0.167302,
2009-02-28, 01:24:00,VALID,915.935,VALID,0,VALID,95.186,VALID,-0.0339617,VALID,18.9948,VALID,23,VALID,0,
2009-02-28, 01:25:00,VALID,915.919,VALID,0,VALID,95.1707,VALID,-0.0169808,VALID,19.0145,VALID,46,VALID,0,
2009-02-28, 01:26:00,VALID,915.921,VALID,0,VALID,95.2546,VALID,-0.0169808,VALID,19.0183,VALID,32,VALID,0,
2009-02-28, 01:27:00,VALID,915.925,VALID,0,VALID,95.2279,VALID,-0.0339617,VALID,19.0245,VALID,31,VALID,0,
2009-02-28, 01:28:00,VALID,915.918,VALID,0,VALID,95.3297,VALID,-0.0679233,VALID,19.0213,VALID,31,VALID,0,
2009-02-28, 01:29:00,VALID,915.906,VALID,0,VALID,95.3958,VALID,-0.0339617,VALID,19.0115,VALID,31,VALID,0,
2009-02-28, 01:30:00,VALID,915.909,VALID,0,VALID,95.5089,VALID,-0.0169808,VALID,19.0016,VALID,31,VALID,0,
2009-02-28, 01:31:00,VALID,915.886,VALID,0,VALID,95.5814,VALID,0,VALID,18.9691,VALID,31,VALID,0,
2009-02-28, 01:32:00,VALID,915.875,VALID,0,VALID,95.603,VALID,-0.0169808,VALID,18.9367,VALID,31,VALID,0,
2009-02-28, 01:33:00,VALID,915.844,VALID,0,VALID,95.7531,VALID,-0.0169808,VALID,18.9107,VALID,31,VALID,0,
2009-02-28, 01:34:00,VALID,915.851,VALID,0,VALID,95.7887,VALID,-0.0339617,VALID,18.8913,VALID,31,VALID,0,
2009-02-28, 01:35:00,VALID,915.832,VALID,0,VALID,95.9896,VALID,-0.0679233,VALID,18.8818,VALID,31,VALID,0,
2009-02-28, 01:36:00,VALID,915.774,VALID,0,VALID,95.8993,VALID,-0.0169808,VALID,18.869,VALID,31,VALID,0,
2009-02-28, 01:37:00,VALID,915.738,VALID,0,VALID,95.9705,VALID,-0.0169808,VALID,18.8621,VALID,31,VALID,0,
2009-02-28, 01:38:00,VALID,915.745,VALID,0,VALID,96.2045,VALID,-0.0849042,VALID,18.8463,VALID,23,VALID,0.22561,
2009-02-28, 01:39:00,VALID,915.712,VALID,0,VALID,96.2147,VALID,-0.0509425,VALID,18.8463,VALID,21,VALID,0.867733,
2009-02-28, 01:40:00,VALID,915.716,VALID,0,VALID,95.7836,VALID,-0.0339617,VALID,18.9531,VALID,26,VALID,0.447088,
2009-02-28, 01:41:00,VALID,915.696,VALID,0,VALID,95.3195,VALID,-0.0509425,VALID,19.0535,VALID,26,VALID,0.000744048,
2009-02-28, 01:42:00,VALID,915.679,VALID,0,VALID,95.1071,VALID,-0.0339617,VALID,19.0702,VALID,10,VALID,0.40952,
2009-02-28, 01:43:00,VALID,915.685,VALID,0,VALID,95.0664,VALID,0.0169808,VALID,19.066,VALID,12,VALID,0.0383358,
2009-02-28, 01:44:00,VALID,915.667,VALID,0,VALID,95.0461,VALID,-0.0509425,VALID,19.0891,VALID,7,VALID,0.141533,
2009-02-28, 01:45:00,VALID,915.628,VALID,0,VALID,95.0321,VALID,0,VALID,19.1024,VALID,16,VALID,0,
2009-02-28, 01:46:00,VALID,915.6,VALID,0,VALID,95.1351,VALID,-0.0339617,VALID,19.0991,VALID,354,VALID,0.375355,
2009-02-28, 01:47:00,VALID,915.593,VALID,0,VALID,95.2241,VALID,-0.0679233,VALID,19.1121,VALID,11,VALID,0.621652,
2009-02-28, 01:48:00,VALID,915.602,VALID,0,VALID,95.3068,VALID,-0.0509425,VALID,19.0861,VALID,348,VALID,0.981898,
2009-02-28, 01:49:00,VALID,915.59,VALID,0,VALID,95.4479,VALID,-0.0169808,VALID,19.0732,VALID,322,VALID,1.25074,
2009-02-28, 01:50:00,VALID,915.56,VALID,0,VALID,95.5229,VALID,-0.0339617,VALID,19.0764,VALID,19,VALID,0.622869,
2009-02-28, 01:51:00,VALID,915.532,VALID,0,VALID,95.7455,VALID,-0.0679233,VALID,19.0602,VALID,24,VALID,2.36737,
2009-02-28, 01:52:00,VALID,915.534,VALID,0,VALID,96.015,VALID,0,VALID,19.034,VALID,29,VALID,0.863582,
2009-02-28, 01:53:00,VALID,915.498,VALID,0,VALID,96.1969,VALID,-0.118866,VALID,19.006,VALID,14,VALID,0.783736,
2009-02-28, 01:54:00,VALID,915.463,VALID,0,VALID,96.3444,VALID,-0.118866,VALID,18.984,VALID,18,VALID,0.630327,
2009-02-28, 01:55:00,VALID,915.448,VALID,0,VALID,96.4766,VALID,-0.152827,VALID,18.9611,VALID,359,VALID,0.762398,
2009-02-28, 01:56:00,VALID,915.437,VALID,0,VALID,96.5555,VALID,-0.118866,VALID,18.9481,VALID,358,VALID,0.541969,
2009-02-28, 01:57:00,VALID,915.43,VALID,0,VALID,96.5911,VALID,-0.186789,VALID,18.9486,VALID,340,VALID,0.389695,
2009-02-28, 01:58:00,VALID,915.399,VALID,0,VALID,96.5288,VALID,-0.118866,VALID,18.9124,VALID,5,VALID,0.0012718,
2009-02-28, 01:59:00,VALID,915.42,VALID,0,VALID,96.7653,VALID,-0.101885,VALID,18.8895,VALID,347,VALID,0,
2009-02-28, 02:00:00,VALID,915.391,VALID,0,VALID,96.7793,VALID,-0.101885,VALID,18.8538,VALID,298,VALID,0.0967262,
2009-02-28, 02:01:00,VALID,915.375,VALID,0,VALID,97.045,VALID,-0.118866,VALID,18.8248,VALID,348,VALID,0.348157,
2009-02-28, 02:02:00,VALID,915.373,VALID,0,VALID,97.2205,VALID,-0.118866,VALID,18.8019,VALID,4,VALID,0.111235,
2009-02-28, 02:03:00,VALID,915.35,VALID,0,VALID,97.3795,VALID,-0.101885,VALID,18.7694,VALID,11,VALID,0.275915,
2009-02-28, 02:04:00,VALID,915.343,VALID,0,VALID,97.63,VALID,-0.135847,VALID,18.7407,VALID,9,VALID,0.0911458,
2009-02-28, 02:05:00,VALID,915.372,VALID,0,VALID,97.7838,VALID,-0.118866,VALID,18.7048,VALID,6,VALID,0,
2009-02-28, 02:06:00,VALID,915.368,VALID,0,VALID,97.9581,VALID,-0.118866,VALID,18.6883,VALID,9,VALID,0,
2009-02-28, 02:07:00,VALID,915.395,VALID,0,VALID,98.0712,VALID,-0.101885,VALID,18.6886,VALID,19,VALID,0,
2009-02-28, 02:08:00,VALID,915.36,VALID,0,VALID,98.1361,VALID,-0.0169808,VALID,18.6644,VALID,19,VALID,0,
2009-02-28, 02:09:00,VALID,915.349,VALID,0,VALID,98.3243,VALID,0,VALID,18.6512,VALID,19,VALID,0,
2009-02-28, 02:10:00,VALID,915.345,VALID,0,VALID,98.4667,VALID,-0.0169808,VALID,18.6452,VALID,19,VALID,0,
2009-02-28, 02:11:00,VALID,915.343,VALID,0,VALID,98.6129,VALID,-0.0339617,VALID,18.6056,VALID,19,VALID,0,
2009-02-28, 02:12:00,VALID,915.341,VALID,0,VALID,98.7426,VALID,0,VALID,18.5861,VALID,19,VALID,0,
2009-02-28, 02:13:00,VALID,915.342,VALID,0,VALID,98.8634,VALID,0,VALID,18.5734,VALID,19,VALID,0,
2009-02-28, 02:14:00,VALID,915.329,VALID,0,VALID,98.941,VALID,-0.0339617,VALID,18.5507,VALID,22,VALID,0,
2009-02-28, 02:15:00,VALID,915.314,VALID,0,VALID,99.1216,VALID,-0.0169808,VALID,18.521,VALID,306,VALID,0,
2009-02-28, 02:16:00,VALID,915.319,VALID,0,VALID,99.2716,VALID,-0.0169808,VALID,18.4854,VALID,265,VALID,0,
2009-02-28, 02:17:00,VALID,915.293,VALID,0,VALID,99.4713,VALID,-0.0169808,VALID,18.4564,VALID,48,VALID,0,
2009-02-28, 02:18:00,VALID,915.287,VALID,0,VALID,99.6531,VALID,0,VALID,18.424,VALID,56,VALID,0,
2009-02-28, 02:19:00,VALID,915.3,VALID,0,VALID,99.7739,VALID,0,VALID,18.4115,VALID,56,VALID,0,
2009-02-28, 02:20:00,VALID,915.283,VALID,0,VALID,99.8655,VALID,-0.0169808,VALID,18.392,VALID,56,VALID,0,
2009-02-28, 02:21:00,VALID,915.28,VALID,0,VALID,99.9914,VALID,-0.0169808,VALID,18.395,VALID,40,VALID,0,
2009-02-28, 02:22:00,VALID,915.296,VALID,0,VALID,100,VALID,-0.0169808,VALID,18.3855,VALID,35,VALID,0,
2009-02-28, 02:23:00,VALID,915.272,VALID,0,VALID,100,VALID,0,VALID,18.3786,VALID,30,VALID,0,
2009-02-28, 02:24:00,VALID,915.268,VALID,0,VALID,100,VALID,-0.0169808,VALID,18.385,VALID,16,VALID,0,
2009-02-28, 02:25:00,VALID,915.236,VALID,0,VALID,100,VALID,-0.0339617,VALID,18.3883,VALID,22,VALID,0,
2009-02-28, 02:26:00,VALID,915.255,VALID,0,VALID,100,VALID,-0.0169808,VALID,18.4075,VALID,27,VALID,0,
2009-02-28, 02:27:00,VALID,915.234,VALID,0,VALID,100,VALID,0,VALID,18.4307,VALID,27,VALID,0,
2009-02-28, 02:28:00,VALID,915.208,VALID,0,VALID,100,VALID,0,VALID,18.427,VALID,17,VALID,0,
2009-02-28, 02:29:00,VALID,915.214,VALID,0,VALID,100,VALID,-0.0169808,VALID,18.4467,VALID,39,VALID,0,
2009-02-28, 02:30:00,VALID,915.215,VALID,0,VALID,100,VALID,-0.0169808,VALID,18.4731,VALID,37,VALID,0,
2009-02-28, 02:31:00,VALID,915.213,VALID,0,VALID,100,VALID,-0.0339617,VALID,18.499,VALID,32,VALID,0,
2009-02-28, 02:32:00,VALID,915.204,VALID,0,VALID,99.9552,VALID,0,VALID,18.5312,VALID,36,VALID,0,
2009-02-28, 02:33:00,VALID,915.219,VALID,0,VALID,99.8477,VALID,0,VALID,18.544,VALID,32,VALID,0,
2009-02-28, 02:34:00,VALID,915.186,VALID,0,VALID,99.7714,VALID,0,VALID,18.5736,VALID,22,VALID,0.4875,
2009-02-28, 02:35:00,VALID,915.165,VALID,0,VALID,99.6442,VALID,0,VALID,18.6285,VALID,19,VALID,0.740282,
2009-02-28, 02:36:00,VALID,915.153,VALID,0,VALID,99.3644,VALID,0,VALID,18.6735,VALID,15,VALID,0.429155,
2009-02-28, 02:37:00,VALID,915.137,VALID,0,VALID,99.0822,VALID,0.0169808,VALID,18.7258,VALID,25,VALID,0.196243,
2009-02-28, 02:38:00,VALID,915.143,VALID,0,VALID,98.8164,VALID,0,VALID,18.8039,VALID,354,VALID,0.151677,
2009-02-28, 02:39:00,VALID,915.164,VALID,0,VALID,98.4464,VALID,-0.0169808,VALID,18.8586,VALID,357,VALID,0.846112,
2009-02-28, 02:40:00,VALID,915.173,VALID,0,VALID,98.0229,VALID,0,VALID,18.9334,VALID,14,VALID,0.398438,
2009-02-28, 02:41:00,VALID,915.136,VALID,0,VALID,97.616,VALID,-0.0339617,VALID,18.9721,VALID,327,VALID,0.271007,
2009-02-28, 02:42:00,VALID,915.142,VALID,0,VALID,97.2358,VALID,0,VALID,19.0629,VALID,312,VALID,0,
2009-02-28, 02:43:00,VALID,915.132,VALID,0,VALID,96.9967,VALID,-0.0339617,VALID,19.0989,VALID,3,VALID,0,
2009-02-28, 02:44:00,VALID,915.136,VALID,0,VALID,96.9255,VALID,-0.0509425,VALID,19.1058,VALID,26,VALID,0.154754,
2009-02-28, 02:45:00,VALID,915.139,VALID,0,VALID,96.9484,VALID,0,VALID,19.1088,VALID,44,VALID,0,
2009-02-28, 02:46:00,VALID,915.132,VALID,0,VALID,96.9649,VALID,-0.0509425,VALID,19.1058,VALID,28,VALID,0.0506811,
2009-02-28, 02:47:00,VALID,915.131,VALID,0,VALID,97.0463,VALID,-0.0339617,VALID,19.0794,VALID,17,VALID,0.160334,
2009-02-28, 02:48:00,VALID,915.135,VALID,0,VALID,97.1658,VALID,-0.0339617,VALID,19.0569,VALID,1,VALID,0,
2009-02-28, 02:49:00,VALID,915.154,VALID,0,VALID,97.2065,VALID,-0.0169808,VALID,19.031,VALID,354,VALID,0,
2009-02-28, 02:50:00,VALID,915.164,VALID,0,VALID,97.4036,VALID,0.0169808,VALID,19.0078,VALID,358,VALID,0,
2009-02-28, 02:51:00,VALID,915.193,VALID,0,VALID,97.5524,VALID,-0.0339617,VALID,18.9853,VALID,357,VALID,0,
2009-02-28, 02:52:00,VALID,915.199,VALID,0,VALID,97.7126,VALID,-0.0169808,VALID,18.9626,VALID,7,VALID,0.0550595,
2009-02-28, 02:53:00,VALID,915.159,VALID,0,VALID,97.911,VALID,-0.0169808,VALID,18.8978,VALID,24,VALID,0.130907,
2009-02-28, 02:54:00,VALID,915.162,VALID,0,VALID,98.0572,VALID,-0.0679233,VALID,18.8428,VALID,24,VALID,0.00093006,
2009-02-28, 02:55:00,VALID,915.142,VALID,0,VALID,98.248,VALID,-0.0509425,VALID,18.79,VALID,24,VALID,0,
2009-02-28, 02:56:00,VALID,915.151,VALID,0,VALID,98.5188,VALID,-0.0339617,VALID,18.765,VALID,6,VALID,0,
2009-02-28, 02:57:00,VALID,915.162,VALID,0,VALID,98.6867,VALID,-0.0679233,VALID,18.7356,VALID,317,VALID,0,
2009-02-28, 02:58:00,VALID,915.104,VALID,0,VALID,98.8482,VALID,-0.0679233,VALID,18.7228,VALID,26,VALID,0.857572,
2009-02-28, 02:59:00,VALID,915.085,VALID,0,VALID,98.9626,VALID,-0.0679233,VALID,18.7198,VALID,25,VALID,0.305618,
2009-02-28, 03:00:00,VALID,915.131,VALID,0,VALID,98.8698,VALID,-0.0849042,VALID,18.7488,VALID,338,VALID,0.0517113,
2009-02-28, 03:01:00,VALID,915.145,VALID,0,VALID,98.7388,VALID,-0.0849042,VALID,18.778,VALID,310,VALID,0,
2009-02-28, 03:02:00,VALID,915.125,VALID,0,VALID,98.7312,VALID,-0.0509425,VALID,18.7877,VALID,30,VALID,0.994141,
2009-02-28, 03:03:00,VALID,915.098,VALID,0,VALID,98.838,VALID,-0.0339617,VALID,18.7812,VALID,24,VALID,0.636018,
2009-02-28, 03:04:00,VALID,915.09,VALID,0,VALID,98.8304,VALID,-0.0339617,VALID,18.8007,VALID,24,VALID,0.429167,
2009-02-28, 03:05:00,VALID,915.112,VALID,0,VALID,98.6346,VALID,-0.101885,VALID,18.8428,VALID,25,VALID,0.102273,
2009-02-28, 03:06:00,VALID,915.11,VALID,0,VALID,98.4858,VALID,-0.0849042,VALID,18.8591,VALID,310,VALID,0.0117188,
2009-02-28, 03:07:00,VALID,915.112,VALID,0,VALID,98.4591,VALID,-0.101885,VALID,18.8623,VALID,341,VALID,0.00121528,
2009-02-28, 03:08:00,VALID,915.093,VALID,0,VALID,98.4769,VALID,0,VALID,18.8646,VALID,27,VALID,0.233232,
2009-02-28, 03:09:00,VALID,915.096,VALID,0,VALID,98.5608,VALID,-0.0169808,VALID,18.8584,VALID,34,VALID,0.168241,
2009-02-28, 03:10:00,VALID,915.093,VALID,0,VALID,98.6663,VALID,0.0169808,VALID,18.8447,VALID,21,VALID,0.152798,
2009-02-28, 03:11:00,VALID,915.045,VALID,0,VALID,98.6867,VALID,0.0509425,VALID,18.8382,VALID,37,VALID,0.0598958,
2009-02-28, 03:12:00,VALID,915.049,VALID,0,VALID,98.7032,VALID,0.0169808,VALID,18.8516,VALID,25,VALID,0.236852,
2009-02-28, 03:13:00,VALID,915.059,VALID,0,VALID,98.6905,VALID,0.0509425,VALID,18.8576,VALID,24,VALID,0.119004,
2009-02-28, 03:14:00,VALID,915.045,VALID,0,VALID,98.6346,VALID,0.0169808,VALID,18.8611,VALID,8,VALID,0.0764101,
2009-02-28, 03:15:00,VALID,915.005,VALID,0,VALID,98.5735,VALID,0.0169808,VALID,18.8609,VALID,3,VALID,0.370384,
2009-02-28, 03:16:00,VALID,915.006,VALID,0,VALID,98.487,VALID,0.0509425,VALID,18.8639,VALID,4,VALID,0.214177,
2009-02-28, 03:17:00,VALID,915.011,VALID,0,VALID,98.4247,VALID,0.0849042,VALID,18.8863,VALID,24,VALID,0,
2009-02-28, 03:18:00,VALID,915.027,VALID,0,VALID,98.2734,VALID,0.0339617,VALID,18.9128,VALID,34,VALID,0,
2009-02-28, 03:19:00,VALID,915.029,VALID,0,VALID,98.2022,VALID,0.0169808,VALID,18.926,VALID,31,VALID,0,
2009-02-28, 03:20:00,VALID,915.008,VALID,0,VALID,98.2645,VALID,0.0679233,VALID,18.9033,VALID,15,VALID,0.634201,
2009-02-28, 03:21:00,VALID,915.009,VALID,0,VALID,98.3739,VALID,0.0169808,VALID,18.8938,VALID,24,VALID,0.267624,
2009-02-28, 03:22:00,VALID,915.024,VALID,0,VALID,98.4781,VALID,0.0339617,VALID,18.8896,VALID,29,VALID,0.387355,
2009-02-28, 03:23:00,VALID,915.008,VALID,0,VALID,98.4883,VALID,-0.0849042,VALID,18.8783,VALID,31,VALID,0.252257,
2009-02-28, 03:24:00,VALID,914.961,VALID,0,VALID,98.571,VALID,-0.0679233,VALID,18.8595,VALID,22,VALID,0.728379,
2009-02-28, 03:25:00,VALID,914.965,VALID,0,VALID,98.7261,VALID,-0.0849042,VALID,18.8234,VALID,20,VALID,1.20108,
2009-02-28, 03:26:00,VALID,914.94,VALID,0,VALID,98.7732,VALID,-0.0509425,VALID,18.8364,VALID,35,VALID,0.495722,
2009-02-28, 03:27:00,VALID,914.933,VALID,0,VALID,98.7503,VALID,-0.101885,VALID,18.8468,VALID,6,VALID,0.157522,
2009-02-28, 03:28:00,VALID,914.937,VALID,0,VALID,98.7299,VALID,-0.101885,VALID,18.8428,VALID,21,VALID,0.0892857,
2009-02-28, 03:29:00,VALID,914.93,VALID,0,VALID,98.7439,VALID,-0.101885,VALID,18.8466,VALID,19,VALID,0.00440705,
2009-02-28, 03:30:00,VALID,914.896,VALID,0,VALID,98.824,VALID,-0.101885,VALID,18.8206,VALID,29,VALID,0.629092,
2009-02-28, 03:31:00,VALID,914.911,VALID,0,VALID,98.9118,VALID,-0.0849042,VALID,18.8072,VALID,25,VALID,0.269804,
2009-02-28, 03:32:00,VALID,914.936,VALID,0,VALID,98.9181,VALID,-0.0679233,VALID,18.8299,VALID,25,VALID,0.293341,
2009-02-28, 03:33:00,VALID,914.919,VALID,0,VALID,98.8952,VALID,-0.0339617,VALID,18.8364,VALID,27,VALID,0.840774,
2009-02-28, 03:34:00,VALID,914.92,VALID,0,VALID,98.8914,VALID,-0.118866,VALID,18.8301,VALID,28,VALID,0.969792,
2009-02-28, 03:35:00,VALID,914.93,VALID,0,VALID,98.9054,VALID,-0.0849042,VALID,18.8366,VALID,31,VALID,0.482088,
2009-02-28, 03:36:00,VALID,914.93,VALID,0,VALID,98.8965,VALID,-0.0509425,VALID,18.8269,VALID,28,VALID,0,
2009-02-28, 03:37:00,VALID,914.929,VALID,0,VALID,98.8889,VALID,-0.0679233,VALID,18.8266,VALID,21,VALID,0.142628,
2009-02-28, 03:38:00,VALID,914.93,VALID,0,VALID,98.9092,VALID,0,VALID,18.819,VALID,28,VALID,0.418501,